Location: Maccacari
(45.1333°N, 11.1333°E)
Time: 15:17:13
(UTC+00:00)

S-56A Canister/Altair - Pass Details

Date: 29 January 2021
Orbit: 631 x 2501 km, 38.9° (Epoch: 01 March)

Event Time Altitude Azimuth Distance (km) Brightness Sun altitude
Rises 04:27:56 0° 267° (W) 2,915 - -23.2°
Reaches altitude 10° 04:30:32 10° 252° (WSW) 2,024 - -22.7°
Exits shadow 04:33:52 23° 203° (SSW) 1,452 8.7 -22.1°
Maximum altitude 04:34:03 23° 199° (SSW) 1,456 8.8 -22.1°
Drops below altitude 10° 04:38:04 10° 148° (SSE) 2,337 10.5 -21.4°
Sets 04:41:20 0° 135° (SE) 3,505 11.7 -20.8°
